When you browse on this site, cookies collect data to enhance your experience and personalize the content and advertising you see.
Visit our Privacy Policy to learn more. By continuing to use the site, you agree to this use of cookies and data.
  • In Romania
  • List of Countries
  • For 7 days
  • Water Temperature
  • Weather Map
  • Weather Widgets
  • user-avatar
    Login

    Hourly Weather Mansoa

    Today, 18 November, Monday

    Time Temperature Precipitation Wind Pressure Humidity
    00:00 +29°C° 0 mm 1 mps 755 mmHg 58%
    01:00 +29°C° 0 mm 1 mps 755 mmHg 56%
    02:00 +29°C° 0 mm 1 mps 755 mmHg 53%
    03:00 +28°C° 0 mm 1 mps 755 mmHg 56%
    04:00 +27°C° 0 mm 2 mps 755 mmHg 58%
    05:00 +26°C° 0 mm 2 mps 755 mmHg 60%
    06:00 +27°C° 0 mm 2 mps 755 mmHg 58%
    07:00 +28°C° 0 mm 2 mps 756 mmHg 55%
    08:00 +29°C° 0 mm 1 mps 756 mmHg 53%
    09:00 +31°C° 0 mm 1 mps 756 mmHg 45%
    10:00 +35°C° 0 mm 2 mps 756 mmHg 37%
    11:00 +36°C° 0 mm 1 mps 755 mmHg 32%
    12:00 +37°C° 0 mm 1 mps 755 mmHg 30%
    13:00 +39°C° 0 mm 1 mps 754 mmHg 28%
    14:00 +40°C° 0 mm 1 mps 753 mmHg 26%
    15:00 +37°C° 0 mm 1 mps 754 mmHg 31%
    16:00 +35°C° 0 mm 1 mps 754 mmHg 36%
    17:00 +34°C° 0 mm 1 mps 754 mmHg 41%
    18:00 +32°C° 0 mm 2 mps 754 mmHg 48%
    19:00 +31°C° 0 mm 2 mps 755 mmHg 54%
    20:00 +29°C° 0 mm 2 mps 756 mmHg 61%
    21:00 +29°C° 0 mm 2 mps 756 mmHg 61%
    22:00 +29°C° 0 mm 2 mps 756 mmHg 61%
    23:00 +29°C° 0 mm 2 mps 756 mmHg 61%

    Tomorrow, 19 November, Tuesday

    Time Temperature Precipitation Wind Pressure Humidity
    00:00 +28°C° 0 mm 2 mps 755 mmHg 60%
    01:00 +27°C° 0 mm 2 mps 755 mmHg 60%
    02:00 +27°C° 0 mm 1 mps 755 mmHg 59%
    03:00 +26°C° 0 mm 1 mps 755 mmHg 59%
    04:00 +26°C° 0 mm 1 mps 755 mmHg 59%
    05:00 +24°C° 0 mm 0 mps 755 mmHg 60%
    06:00 +27°C° 0 mm 1 mps 755 mmHg 56%
    07:00 +28°C° 0 mm 1 mps 756 mmHg 52%
    08:00 +30°C° 0 mm 2 mps 757 mmHg 48%
    09:00 +32°C° 0 mm 2 mps 756 mmHg 40%
    10:00 +35°C° 0 mm 2 mps 756 mmHg 33%
    11:00 +37°C° 0 mm 2 mps 756 mmHg 25%
    12:00 +38°C° 0 mm 2 mps 755 mmHg 24%
    13:00 +39°C° 0 mm 2 mps 754 mmHg 23%
    14:00 +40°C° 0 mm 1 mps 754 mmHg 22%
    15:00 +38°C° 0 mm 2 mps 754 mmHg 28%
    16:00 +36°C° 0 mm 2 mps 754 mmHg 34%
    17:00 +34°C° 0 mm 2 mps 754 mmHg 40%
    18:00 +32°C° 0 mm 2 mps 754 mmHg 49%
    19:00 +30°C° 0 mm 2 mps 755 mmHg 57%
    20:00 +28°C° 0 mm 2 mps 755 mmHg 66%
    21:00 +28°C° 0 mm 2 mps 756 mmHg 68%
    22:00 +27°C° 0 mm 2 mps 756 mmHg 69%
    23:00 +27°C° 0 mm 2 mps 756 mmHg 71%

    Day after tomorrow, 20 November, Wednesday

    Time Temperature Precipitation Wind Pressure Humidity
    00:00 +26°C° 0 mm 1 mps 756 mmHg 70%
    01:00 +26°C° 0 mm 1 mps 755 mmHg 68%
    02:00 +26°C° 0 mm 1 mps 755 mmHg 66%
    03:00 +25°C° 0 mm 1 mps 755 mmHg 67%
    04:00 +25°C° 0 mm 1 mps 755 mmHg 68%
    05:00 +23°C° 0 mm 0 mps 755 mmHg 69%
    06:00 +24°C° 0 mm 0 mps 756 mmHg 65%
    07:00 +26°C° 0 mm 0 mps 756 mmHg 61%
    08:00 +29°C° 0 mm 1 mps 756 mmHg 57%
    09:00 +32°C° 0 mm 1 mps 756 mmHg 49%
    10:00 +34°C° 0 mm 1 mps 756 mmHg 40%
    11:00 +37°C° 0 mm 1 mps 756 mmHg 31%
    12:00 +37°C° 0 mm 1 mps 755 mmHg 32%
    13:00 +38°C° 0 mm 2 mps 755 mmHg 32%
    14:00 +39°C° 0 mm 2 mps 754 mmHg 32%
    15:00 +37°C° 0 mm 2 mps 754 mmHg 41%
    16:00 +35°C° 0 mm 3 mps 754 mmHg 49%
    17:00 +33°C° 0 mm 3 mps 754 mmHg 58%
    18:00 +31°C° 0 mm 3 mps 755 mmHg 63%
    19:00 +30°C° 0 mm 3 mps 756 mmHg 68%
    20:00 +29°C° 0 mm 3 mps 756 mmHg 73%
    21:00 +28°C° 0 mm 2 mps 756 mmHg 75%
    22:00 +28°C° 0 mm 2 mps 756 mmHg 77%
    23:00 +28°C° 0 mm 2 mps 756 mmHg 79%

    21 November, Thursday

    Time Temperature Precipitation Wind Pressure Humidity
    00:00 +27°C° 0 mm 2 mps 756 mmHg 79%
    01:00 +26°C° 0 mm 1 mps 756 mmHg 80%
    02:00 +26°C° 0 mm 1 mps 756 mmHg 80%
    03:00 +25°C° 0 mm 1 mps 756 mmHg 77%
    04:00 +25°C° 0 mm 1 mps 756 mmHg 74%
    05:00 +25°C° 0 mm 1 mps 756 mmHg 72%
    06:00 +27°C° 0 mm 1 mps 756 mmHg 66%
    07:00 +28°C° 0 mm 1 mps 757 mmHg 60%
    08:00 +28°C° 0 mm 0 mps 757 mmHg 55%
    09:00 +31°C° 0 mm 0 mps 757 mmHg 47%
    10:00 +35°C° 0 mm 1 mps 756 mmHg 40%
    11:00 +39°C° 0 mm 1 mps 756 mmHg 33%
    12:00 +39°C° 0 mm 1 mps 756 mmHg 32%
    13:00 +39°C° 0 mm 1 mps 755 mmHg 30%
    14:00 +40°C° 0 mm 2 mps 755 mmHg 29%
    15:00 +37°C° 0 mm 2 mps 755 mmHg 36%
    16:00 +35°C° 0 mm 3 mps 754 mmHg 44%
    17:00 +33°C° 0 mm 3 mps 754 mmHg 51%
    18:00 +31°C° 0 mm 3 mps 755 mmHg 58%
    19:00 +30°C° 0 mm 3 mps 755 mmHg 65%
    20:00 +28°C° 0 mm 2 mps 756 mmHg 71%
    21:00 +28°C° 0 mm 2 mps 756 mmHg 74%
    22:00 +27°C° 0 mm 2 mps 756 mmHg 77%
    23:00 +27°C° 0 mm 2 mps 756 mmHg 80%

    22 November, Friday

    Time Temperature Precipitation Wind Pressure Humidity
    00:00 +26°C° 0 mm 2 mps 756 mmHg 81%
    01:00 +26°C° 0 mm 1 mps 756 mmHg 81%
    02:00 +25°C° 0 mm 1 mps 755 mmHg 81%
    03:00 +25°C° 0 mm 1 mps 756 mmHg 78%
    04:00 +25°C° 0 mm 1 mps 756 mmHg 75%
    05:00 +22°C° 0 mm 0 mps 756 mmHg 71%
    06:00 +24°C° 0 mm 0 mps 756 mmHg 66%
    07:00 +26°C° 0 mm 0 mps 757 mmHg 60%
    08:00 +28°C° 0 mm 0 mps 757 mmHg 54%
    09:00 +30°C° 0 mm 0 mps 757 mmHg 46%
    10:00 +35°C° 0 mm 1 mps 757 mmHg 37%
    11:00 +37°C° 0 mm 1 mps 756 mmHg 29%
    12:00 +39°C° 0 mm 1 mps 756 mmHg 27%
    13:00 +39°C° 0 mm 2 mps 755 mmHg 25%
    14:00 +40°C° 0 mm 2 mps 754 mmHg 24%
    15:00 +37°C° 0 mm 2 mps 754 mmHg 32%
    16:00 +35°C° 0 mm 3 mps 754 mmHg 41%
    17:00 +33°C° 0 mm 3 mps 754 mmHg 49%
    18:00 +30°C° 0 mm 3 mps 754 mmHg 58%
    19:00 +29°C° 0 mm 2 mps 755 mmHg 67%
    20:00 +27°C° 0 mm 2 mps 755 mmHg 76%
    21:00 +27°C° 0 mm 2 mps 756 mmHg 79%
    22:00 +26°C° 0 mm 2 mps 756 mmHg 82%
    23:00 +26°C° 0 mm 2 mps 756 mmHg 85%

    23 November, Saturday

    Time Temperature Precipitation Wind Pressure Humidity
    00:00 +25°C° 0 mm 2 mps 756 mmHg 84%
    01:00 +25°C° 0 mm 1 mps 756 mmHg 83%
    02:00 +24°C° 0 mm 1 mps 756 mmHg 82%
    03:00 +24°C° 0 mm 1 mps 756 mmHg 80%
    04:00 +22°C° 0 mm 0 mps 756 mmHg 79%
    05:00 +21°C° 0 mm 0 mps 756 mmHg 77%
    06:00 +23°C° 0 mm 0 mps 756 mmHg 70%
    07:00 +25°C° 0 mm 0 mps 757 mmHg 63%
    08:00 +27°C° 0 mm 0 mps 757 mmHg 55%
    09:00 +31°C° 0 mm 1 mps 757 mmHg 46%
    10:00 +35°C° 0 mm 2 mps 757 mmHg 37%
    11:00 +37°C° 0 mm 2 mps 756 mmHg 28%
    12:00 +38°C° 0 mm 3 mps 755 mmHg 26%
    13:00 +39°C° 0 mm 3 mps 755 mmHg 25%
    14:00 +40°C° 0 mm 3 mps 754 mmHg 23%
    15:00 +38°C° 0 mm 3 mps 754 mmHg 29%
    16:00 +36°C° 0 mm 2 mps 754 mmHg 35%
    17:00 +35°C° 0 mm 2 mps 754 mmHg 41%
    18:00 +32°C° 0 mm 2 mps 754 mmHg 52%
    19:00 +29°C° 0 mm 2 mps 755 mmHg 63%
    20:00 +27°C° 0 mm 2 mps 755 mmHg 74%
    21:00 +27°C° 0 mm 2 mps 755 mmHg 78%
    22:00 +26°C° 0 mm 2 mps 755 mmHg 81%
    23:00 +26°C° 0 mm 2 mps 756 mmHg 84%
    Show more